Voltar ao catálogo

STARLINK-33623

AtivoComunicaçõesVLEO
NORAD 63072·PAYLOAD·🇺🇸 United States

Lançado Feb 21, 2025 de Cape Canaveral Space Force Station

Loading…

Próximas Passagens (próximas 24 horas)

TLE

AtualizadoSource: CelesTrak SupGP

Época: Sep 15, 2026, 02:53 UTC

1 63072C 25035W   26258.12062500  .00034870  00000+0  12632-2 0  2587
2 63072  43.0014 157.5898 0001446 270.3149 214.9572 15.27556887    11

Acompanhe STARLINK-33623 em tempo real com AllMySat

Download on the App Store